| time (UTC) | temp F | wind direction | speed MPH | gust MPH | rain 1hr in | rain 24hr in | rain mn in | humidity % | barometer mb |
| 20260503003300 | 63 | 226 | 2.0 | 6.0 | 0.00 | 0.00 | 0.00 | 38 | 1018.1 |
| 20260503002759 | 63 | 221 | 3.0 | 6.0 | 0.00 | 0.00 | 0.00 | 39 | 1017.9 |
| 20260503002259 | 64 | 220 | 2.0 | 5.0 | 0.00 | 0.00 | 0.00 | 39 | 1018.1 |
| 20260503001759 | 64 | 213 | 3.0 | 5.0 | 0.00 | 0.00 | 0.00 | 38 | 1018.1 |
| 20260503001258 | 64 | 223 | 1.0 | 5.0 | 0.00 | 0.00 | 0.00 | 37 | 1018.2 |
| 20260503000759 | 64 | 243 | 2.0 | 4.0 | 0.00 | 0.00 | 0.00 | 35 | 1018.1 |
| 20260503000258 | 64 | 254 | 1.0 | 7.0 | 0.00 | 0.00 | 0.00 | 35 | 1018.2 |
| 20260502235759 | 65 | 281 | 3.0 | 7.0 | 0.00 | 0.00 | 0.00 | 34 | 1018.1 |
| 20260502235258 | 65 | 0 | 3.0 | 6.0 | 0.00 | 0.00 | 0.00 | 34 | 1018.1 |
| 20260502234758 | 65 | 250 | 2.0 | 7.0 | 0.00 | 0.00 | 0.00 | 35 | 1018.1 |
| 20260502234258 | 65 | 279 | 3.0 | 7.0 | 0.00 | 0.00 | 0.00 | 36 | 1018.1 |
| 20260502233257 | 64 | 314 | 4.0 | 7.0 | 0.00 | 0.00 | 0.00 | 34 | 1018.1 |
| 20260502232758 | 65 | 23 | 4.0 | 6.0 | 0.00 | 0.00 | 0.00 | 34 | 1018.1 |
| 20260502232257 | 65 | 257 | 3.0 | 5.0 | 0.00 | 0.00 | 0.00 | 34 | 1018.2 |
| 20260502231758 | 65 | 3 | 3.0 | 7.0 | 0.00 | 0.00 | 0.00 | 35 | 1018.2 |
| 20260502231257 | 65 | 354 | 3.0 | 7.0 | 0.00 | 0.00 | 0.00 | 32 | 1018.3 |
| 20260502230757 | 65 | 268 | 4.0 | 7.0 | 0.00 | 0.00 | 0.00 | 35 | 1018.3 |
| 20260502230258 | 65 | 312 | 3.0 | 6.0 | 0.00 | 0.00 | 0.00 | 34 | 1018.4 |
| 20260502225756 | 65 | 306 | 1.0 | 6.0 | 0.00 | 0.00 | 0.00 | 32 | 1018.4 |
| 20260502225257 | 65 | 310 | 1.0 | 6.0 | 0.00 | 0.00 | 0.00 | 34 | 1018.4 |
| 20260502224757 | 65 | 323 | 3.0 | 10.0 | 0.00 | 0.00 | 0.00 | 34 | 1018.4 |
| 20260502224257 | 65 | 248 | 6.0 | 10.0 | 0.00 | 0.00 | 0.00 | 36 | 1018.5 |
| 20260502223757 | 65 | 314 | 1.0 | 4.0 | 0.00 | 0.00 | 0.00 | 37 | 1018.5 |
| 20260502223256 | 66 | 358 | 2.0 | 4.0 | 0.00 | 0.00 | 0.00 | 34 | 1018.5 |
| 20260502222256 | 66 | 127 | 3.0 | 5.0 | 0.00 | 0.00 | 0.00 | 35 | 1018.6 |
| 20260502221757 | 66 | 321 | 2.0 | 6.0 | 0.00 | 0.00 | 0.00 | 34 | 1018.6 |
| 20260502221256 | 66 | 300 | 2.0 | 6.0 | 0.00 | 0.00 | 0.00 | 36 | 1018.7 |
| 20260502220256 | 66 | 123 | 4.0 | 10.0 | 0.00 | 0.00 | 0.00 | 37 | 1018.8 |
| 20260502215756 | 66 | 268 | 4.0 | 9.0 | 0.00 | 0.00 | 0.00 | 35 | 1018.8 |
| 20260502215254 | 65 | 276 | 2.0 | 9.0 | 0.00 | 0.00 | 0.00 | 35 | 1018.8 |
| 20260502214756 | 65 | 269 | 2.0 | 7.0 | 0.00 | 0.00 | 0.00 | 37 | 1018.8 |
| 20260502214255 | 65 | 235 | 5.0 | 7.0 | 0.00 | 0.00 | 0.00 | 39 | 1018.8 |
| 20260502213755 | 64 | 258 | 3.0 | 10.0 | 0.00 | 0.00 | 0.00 | 36 | 1018.9 |
| 20260502213255 | 64 | 343 | 4.0 | 10.0 | 0.00 | 0.00 | 0.00 | 35 | 1018.9 |
| 20260502212755 | 65 | 293 | 3.0 | 7.0 | 0.00 | 0.00 | 0.00 | 39 | 1019.0 |
| 20260502212254 | 64 | 283 | 5.0 | 10.0 | 0.00 | 0.00 | 0.00 | 37 | 1019.0 |
| 20260502211755 | 64 | 355 | 6.0 | 10.0 | 0.00 | 0.00 | 0.00 | 35 | 1019.1 |
| 20260502210755 | 64 | 295 | 6.0 | 10.0 | 0.00 | 0.00 | 0.00 | 36 | 1019.1 |
| 20260502210254 | 64 | 195 | 5.0 | 9.0 | 0.00 | 0.00 | 0.00 | 38 | 1019.1 |
| 20260502205755 | 64 | 340 | 3.0 | 11.0 | 0.00 | 0.00 | 0.00 | 38 | 1019.2 |
| 20260502205254 | 65 | 343 | 4.0 | 11.0 | 0.00 | 0.00 | 0.00 | 36 | 1019.3 |
| 20260502204754 | 65 | 258 | 3.0 | 11.0 | 0.00 | 0.00 | 0.00 | 42 | 1019.5 |
| 20260502204254 | 65 | 231 | 4.0 | 12.0 | 0.00 | 0.00 | 0.00 | 36 | 1019.4 |
| 20260502203753 | 65 | 252 | 3.0 | 12.0 | 0.00 | 0.00 | 0.00 | 39 | 1019.5 |
| 20260502203254 | 64 | 293 | 2.0 | 10.0 | 0.00 | 0.00 | 0.00 | 44 | 1019.5 |
| 20260502202753 | 64 | 269 | 3.0 | 13.0 | 0.00 | 0.00 | 0.00 | 41 | 1019.6 |
| 20260502202253 | 64 | 330 | 7.0 | 13.0 | 0.00 | 0.00 | 0.00 | 38 | 1019.7 |
| 20260502201753 | 64 | 316 | 1.0 | 5.0 | 0.00 | 0.00 | 0.00 | 35 | 1019.7 |
| 20260502201253 | 63 | 234 | 3.0 | 9.0 | 0.00 | 0.00 | 0.00 | 42 | 1019.7 |
| 20260502200753 | 63 | 275 | 4.0 | 13.0 | 0.00 | 0.00 | 0.00 | 41 | 1019.7 |
| 20260502200252 | 63 | 6 | 2.0 | 13.0 | 0.00 | 0.00 | 0.00 | 45 | 1019.8 |
| 20260502195753 | 63 | 348 | 4.0 | 10.0 | 0.00 | 0.00 | 0.00 | 39 | 1019.8 |
| 20260502194752 | 63 | 345 | 4.0 | 7.0 | 0.00 | 0.00 | 0.00 | 43 | 1019.8 |
| 20260502194253 | 63 | 323 | 3.0 | 6.0 | 0.00 | 0.00 | 0.00 | 47 | 1020.0 |
| 20260502193752 | 62 | 299 | 5.0 | 7.0 | 0.00 | 0.00 | 0.00 | 45 | 1020.0 |
| 20260502193252 | 62 | 230 | 1.0 | 11.0 | 0.00 | 0.00 | 0.00 | 45 | 1020.0 |
| 20260502192752 | 62 | 18 | 6.0 | 11.0 | 0.00 | 0.00 | 0.00 | 41 | 1020.0 |
| 20260502192252 | 62 | 334 | 1.0 | 9.0 | 0.00 | 0.00 | 0.00 | 42 | 1020.1 |
| 20260502191752 | 61 | 264 | 5.0 | 10.0 | 0.00 | 0.00 | 0.00 | 40 | 1020.1 |
| 20260502191252 | 61 | 68 | 5.0 | 11.0 | 0.00 | 0.00 | 0.00 | 43 | 1020.1 |
| 20260502190751 | 61 | 341 | 6.0 | 14.0 | 0.00 | 0.00 | 0.00 | 43 | 1020.1 |
| 20260502190252 | 61 | 13 | 9.0 | 14.0 | 0.00 | 0.00 | 0.00 | 47 | 1020.3 |
| 20260502185751 | 61 | 0 | 5.0 | 13.0 | 0.00 | 0.00 | 0.00 | 46 | 1020.3 |
| 20260502185252 | 61 | 358 | 5.0 | 9.0 | 0.00 | 0.00 | 0.00 | 43 | 1020.4 |
| 20260502184751 | 62 | 45 | 2.0 | 9.0 | 0.00 | 0.00 | 0.00 | 46 | 1020.4 |
| 20260502184251 | 62 | 338 | 2.0 | 9.0 | 0.00 | 0.00 | 0.00 | 44 | 1020.5 |
| 20260502183751 | 61 | 212 | 4.0 | 9.0 | 0.00 | 0.00 | 0.00 | 43 | 1020.5 |
| 20260502183250 | 61 | 275 | 5.0 | 9.0 | 0.00 | 0.00 | 0.00 | 45 | 1020.7 |
| 20260502182751 | 60 | 0 | 4.0 | 12.0 | 0.00 | 0.00 | 0.00 | 48 | 1020.7 |
| 20260502182250 | 60 | 358 | 4.0 | 12.0 | 0.00 | 0.00 | 0.00 | 42 | 1020.7 |
| 20260502181752 | 60 | 309 | 6.0 | 12.0 | 0.00 | 0.00 | 0.00 | 44 | 1020.8 |
| 20260502181250 | 60 | 286 | 5.0 | 12.0 | 0.00 | 0.00 | 0.00 | 50 | 1020.8 |
| 20260502180250 | 60 | 330 | 3.0 | 7.0 | 0.00 | 0.00 | 0.00 | 49 | 1020.9 |
| 20260502170248 | 58 | 306 | 6.0 | 14.0 | 0.00 | 0.00 | 0.00 | 47 | 1021.5 |
| 20260502164248 | 58 | 16 | 5.0 | 16.0 | 0.00 | 0.00 | 0.00 | 50 | 1021.6 |
| 20260502163748 | 58 | 21 | 5.0 | 16.0 | 0.00 | 0.00 | 0.00 | 48 | 1021.5 |
| 20260502162748 | 58 | 323 | 3.0 | 6.0 | 0.00 | 0.00 | 0.00 | 48 | 1021.8 |
| 20260502161747 | 57 | 62 | 4.0 | 11.0 | 0.00 | 0.00 | 0.00 | 47 | 1021.6 |
| 20260502160747 | 57 | 3 | 8.0 | 14.0 | 0.00 | 0.00 | 0.00 | 51 | 1021.5 |
| 20260502160248 | 57 | 0 | 7.0 | 12.0 | 0.00 | 0.00 | 0.00 | 51 | 1021.6 |
| 20260502151746 | 55 | 350 | 5.0 | 11.0 | 0.00 | 0.00 | 0.00 | 52 | 1021.6 |
| 20260502151246 | 55 | 305 | 4.0 | 11.0 | 0.00 | 0.00 | 0.00 | 55 | 1021.6 |
| 20260502150747 | 55 | 348 | 8.0 | 11.0 | 0.00 | 0.00 | 0.00 | 55 | 1021.5 |
| 20260502150246 | 55 | 353 | 6.0 | 11.0 | 0.00 | 0.00 | 0.00 | 58 | 1021.5 |
| 20260502130743 | 45 | 345 | 4.0 | 6.0 | 0.00 | 0.00 | 0.00 | 74 | 1021.2 |
| 20260502123742 | 41 | 353 | 3.0 | 6.0 | 0.00 | 0.00 | 0.00 | 81 | 1020.9 |
| 20260502123243 | 40 | 329 | 2.0 | 4.0 | 0.00 | 0.00 | 0.00 | 83 | 1020.9 |
| 20260502122742 | 39 | 326 | 2.0 | 4.0 | 0.00 | 0.00 | 0.00 | 84 | 1020.9 |
| 20260502122242 | 39 | 314 | 2.0 | 3.0 | 0.00 | 0.00 | 0.00 | 85 | 1020.7 |
| 20260502121743 | 38 | 323 | 2.0 | 3.0 | 0.00 | 0.00 | 0.00 | 85 | 1020.7 |
| 20260502121242 | 38 | 323 | 2.0 | 3.0 | 0.00 | 0.00 | 0.00 | 85 | 1020.6 |
| 20260502120241 | 37 | 323 | 2.0 | 4.0 | 0.00 | 0.00 | 0.00 | 86 | 1020.4 |
| 20260502115742 | 37 | 323 | 2.0 | 4.0 | 0.00 | 0.00 | 0.00 | 86 | 1020.3 |
| 20260502115241 | 37 | 323 | 2.0 | 4.0 | 0.00 | 0.00 | 0.00 | 86 | 1020.3 |
| 20260502114741 | 37 | 323 | 1.0 | 4.0 | 0.00 | 0.00 | 0.00 | 86 | 1020.1 |
| 20260502113741 | 37 | 316 | 2.0 | 3.0 | 0.00 | 0.00 | 0.00 | 85 | 1020.1 |
| 20260502113241 | 37 | 320 | 2.0 | 4.0 | 0.00 | 0.00 | 0.00 | 85 | 1020.1 |
| 20260502112741 | 37 | 323 | 2.0 | 4.0 | 0.00 | 0.00 | 0.00 | 84 | 1020.0 |
| 20260502112240 | 37 | 348 | 1.0 | 4.0 | 0.00 | 0.00 | 0.00 | 83 | 1020.0 |
| 20260502111741 | 37 | 348 | 2.0 | 4.0 | 0.00 | 0.00 | 0.00 | 83 | 1020.0 |
| 20260502111240 | 37 | 343 | 2.0 | 4.0 | 0.00 | 0.00 | 0.00 | 83 | 1019.9 |
| 20260502110741 | 37 | 334 | 2.0 | 4.0 | 0.00 | 0.00 | 0.00 | 84 | 1019.9 |
| 20260502110240 | 37 | 334 | 2.0 | 4.0 | 0.00 | 0.00 | 0.00 | 85 | 1019.9 |
| 20260502105240 | 37 | 334 | 1.0 | 3.0 | 0.00 | 0.00 | 0.00 | 84 | 1019.9 |
| 20260502104740 | 37 | 334 | 2.0 | 3.0 | 0.00 | 0.00 | 0.00 | 84 | 1019.8 |
| 20260502104239 | 38 | 334 | 2.0 | 3.0 | 0.00 | 0.00 | 0.00 | 83 | 1019.8 |
| 20260502103739 | 38 | 334 | 2.0 | 3.0 | 0.00 | 0.00 | 0.00 | 82 | 1019.7 |
| 20260502103239 | 38 | 334 | 2.0 | 3.0 | 0.00 | 0.00 | 0.00 | 82 | 1019.7 |
| 20260502101739 | 38 | 334 | 1.0 | 3.0 | 0.00 | 0.00 | 0.00 | 82 | 1019.7 |
| 20260502101239 | 38 | 334 | 2.0 | 3.0 | 0.00 | 0.00 | 0.00 | 82 | 1019.7 |
| 20260502100740 | 38 | 334 | 2.0 | 3.0 | 0.00 | 0.00 | 0.00 | 81 | 1019.7 |
| 20260502090737 | 40 | 330 | 2.0 | 4.0 | 0.00 | 0.00 | 0.00 | 80 | 1019.3 |
| 20260502071236 | 40 | 321 | 3.0 | 5.0 | 0.00 | 0.00 | 0.00 | 84 | 1019.2 |
| 20260502070734 | 40 | 319 | 2.0 | 5.0 | 0.00 | 0.00 | 0.00 | 84 | 1019.2 |
| 20260502070236 | 40 | 319 | 3.0 | 5.0 | 0.00 | 0.00 | 0.00 | 85 | 1019.2 |
| 20260502065734 | 40 | 337 | 3.0 | 4.0 | 0.00 | 0.00 | 0.00 | 86 | 1019.2 |
| 20260502064734 | 40 | 337 | 3.0 | 4.0 | 0.00 | 0.00 | 0.00 | 85 | 1019.2 |
| 20260502064235 | 40 | 337 | 3.0 | 4.0 | 0.00 | 0.00 | 0.00 | 83 | 1019.2 |
| 20260502063735 | 40 | 337 | 2.0 | 3.0 | 0.00 | 0.00 | 0.00 | 83 | 1019.2 |
| 20260502063234 | 40 | 337 | 2.0 | 3.0 | 0.00 | 0.00 | 0.00 | 83 | 1019.2 |
| 20260502062734 | 41 | 337 | 2.0 | 3.0 | 0.00 | 0.00 | 0.00 | 82 | 1019.2 |
| 20260502062232 | 41 | 337 | 1.0 | 3.0 | 0.00 | 0.00 | 0.00 | 81 | 1019.3 |
| 20260502061734 | 41 | 337 | 2.0 | 2.0 | 0.00 | 0.00 | 0.00 | 81 | 1019.4 |
| 20260502061233 | 41 | 337 | 1.0 | 2.0 | 0.00 | 0.00 | 0.00 | 82 | 1019.3 |
| 20260502060234 | 42 | 337 | 1.0 | 2.0 | 0.00 | 0.00 | 0.00 | 81 | 1019.3 |
| 20260502055733 | 42 | 337 | 0.0 | 2.0 | 0.00 | 0.00 | 0.00 | 81 | 1019.5 |
| 20260502054732 | 42 | 337 | 2.0 | 3.0 | 0.00 | 0.00 | 0.00 | 81 | 1019.4 |
| 20260502054232 | 43 | 337 | 2.0 | 4.0 | 0.00 | 0.00 | 0.00 | 80 | 1019.4 |
| 20260502053233 | 44 | 337 | 1.0 | 2.0 | 0.00 | 0.00 | 0.00 | 80 | 1019.4 |
| 20260502052732 | 44 | 337 | 0.0 | 2.0 | 0.00 | 0.00 | 0.00 | 80 | 1019.2 |
| 20260502052232 | 44 | 337 | 1.0 | 3.0 | 0.00 | 0.00 | 0.00 | 80 | 1019.2 |
| 20260502051732 | 44 | 337 | 1.0 | 4.0 | 0.00 | 0.00 | 0.00 | 80 | 1019.2 |
| 20260502051231 | 44 | 337 | 2.0 | 4.0 | 0.00 | 0.00 | 0.00 | 81 | 1019.1 |
| 20260502050231 | 44 | 337 | 2.0 | 4.0 | 0.00 | 0.00 | 0.00 | 81 | 1019.1 |
| 20260502045731 | 45 | 337 | 2.0 | 4.0 | 0.00 | 0.00 | 0.00 | 81 | 1019.0 |
| 20260502045231 | 45 | 343 | 2.0 | 4.0 | 0.00 | 0.00 | 0.00 | 82 | 1018.9 |
| 20260502044730 | 45 | 343 | 2.0 | 4.0 | 0.00 | 0.00 | 0.00 | 81 | 1019.0 |
| 20260502044230 | 45 | 345 | 3.0 | 4.0 | 0.00 | 0.00 | 0.00 | 81 | 1018.9 |
| 20260502043731 | 46 | 334 | 2.0 | 3.0 | 0.00 | 0.00 | 0.00 | 81 | 1018.8 |
| 20260502043231 | 46 | 334 | 2.0 | 3.0 | 0.00 | 0.00 | 0.00 | 81 | 1018.8 |
| 20260502042731 | 46 | 334 | 2.0 | 4.0 | 0.00 | 0.00 | 0.00 | 81 | 1018.8 |
| 20260502042231 | 46 | 334 | 2.0 | 4.0 | 0.00 | 0.00 | 0.00 | 81 | 1018.8 |
| 20260502041730 | 46 | 334 | 3.0 | 3.0 | 0.00 | 0.00 | 0.00 | 82 | 1018.7 |
| 20260502041230 | 46 | 334 | 2.0 | 3.0 | 0.00 | 0.00 | 0.00 | 81 | 1018.8 |
| 20260502040730 | 46 | 343 | 1.0 | 5.0 | 0.00 | 0.00 | 0.00 | 80 | 1018.7 |
| 20260502040231 | 46 | 344 | 3.0 | 5.0 | 0.00 | 0.00 | 0.00 | 79 | 1018.7 |
| 20260502035730 | 46 | 345 | 3.0 | 5.0 | 0.00 | 0.00 | 0.00 | 79 | 1018.7 |
| 20260502035230 | 46 | 347 | 4.0 | 5.0 | 0.00 | 0.00 | 0.00 | 80 | 1018.7 |
| 20260502034730 | 46 | 347 | 3.0 | 4.0 | 0.00 | 0.00 | 0.00 | 82 | 1018.7 |
| 20260502034230 | 47 | 331 | 2.0 | 3.0 | 0.00 | 0.00 | 0.00 | 82 | 1018.6 |
| 20260502033730 | 47 | 331 | 2.0 | 3.0 | 0.00 | 0.00 | 0.00 | 81 | 1018.7 |
| 20260502033229 | 47 | 331 | 1.0 | 2.0 | 0.00 | 0.00 | 0.00 | 81 | 1018.6 |
| 20260502032230 | 48 | 331 | 1.0 | 3.0 | 0.00 | 0.00 | 0.00 | 78 | 1018.5 |
| 20260502031729 | 48 | 331 | 0.0 | 1.0 | 0.00 | 0.00 | 0.00 | 78 | 1018.4 |
| 20260502030729 | 49 | 331 | 0.0 | 2.0 | 0.00 | 0.00 | 0.00 | 78 | 1018.3 |
| 20260502030229 | 49 | 331 | 1.0 | 3.0 | 0.00 | 0.00 | 0.00 | 78 | 1018.2 |
| 20260502025729 | 49 | 331 | 2.0 | 3.0 | 0.00 | 0.00 | 0.00 | 78 | 1018.2 |
| 20260502025227 | 49 | 331 | 2.0 | 3.0 | 0.00 | 0.00 | 0.00 | 76 | 1018.1 |
| 20260502024228 | 50 | 331 | 2.0 | 3.0 | 0.00 | 0.00 | 0.00 | 71 | 1017.8 |
| 20260502023729 | 51 | 348 | 2.0 | 3.0 | 0.00 | 0.00 | 0.00 | 69 | 1017.7 |
| 20260502023228 | 51 | 343 | 1.0 | 3.0 | 0.00 | 0.00 | 0.00 | 69 | 1017.5 |
| 20260502022728 | 51 | 343 | 2.0 | 3.0 | 0.00 | 0.00 | 0.00 | 69 | 1017.4 |
| 20260502022229 | 51 | 343 | 2.0 | 3.0 | 0.00 | 0.00 | 0.00 | 68 | 1017.4 |
| 20260502021728 | 52 | 6 | 2.0 | 3.0 | 0.00 | 0.00 | 0.00 | 69 | 1017.3 |
| 20260502021227 | 52 | 6 | 1.0 | 4.0 | 0.00 | 0.00 | 0.00 | 69 | 1017.3 |
| 20260502020727 | 52 | 6 | 1.0 | 4.0 | 0.00 | 0.00 | 0.00 | 68 | 1017.1 |
| 20260502015727 | 53 | 358 | 0.0 | 2.0 | 0.00 | 0.00 | 0.00 | 70 | 1017.1 |
| 20260502015227 | 53 | 358 | 1.0 | 3.0 | 0.00 | 0.00 | 0.00 | 70 | 1017.0 |
| 20260502014727 | 54 | 358 | 0.0 | 3.0 | 0.00 | 0.00 | 0.00 | 68 | 1016.9 |
| 20260502014227 | 55 | 358 | 0.0 | 3.0 | 0.00 | 0.00 | 0.00 | 67 | 1016.8 |
| 20260502013727 | 55 | 358 | 0.0 | 3.0 | 0.00 | 0.00 | 0.00 | 68 | 1016.8 |
| 20260502012726 | 56 | 358 | 0.0 | 1.0 | 0.00 | 0.00 | 0.00 | 66 | 1016.6 |
| 20260502012227 | 56 | 358 | 0.0 | 0.0 | 0.00 | 0.00 | 0.00 | 66 | 1016.5 |
| 20260502011726 | 57 | 358 | 0.0 | 0.0 | 0.00 | 0.00 | 0.00 | 64 | 1016.5 |
| 20260502011226 | 58 | 358 | 0.0 | 1.0 | 0.00 | 0.00 | 0.00 | 62 | 1016.4 |
| 20260502010726 | 58 | 358 | 0.0 | 3.0 | 0.00 | 0.00 | 0.00 | 60 | 1016.3 |
| 20260502010226 | 59 | 358 | 1.0 | 3.0 | 0.00 | 0.00 | 0.00 | 56 | 1016.2 |
| 20260502005726 | 60 | 358 | 0.0 | 2.0 | 0.00 | 0.00 | 0.00 | 54 | 1016.2 |
| 20260502005226 | 60 | 358 | 0.0 | 2.0 | 0.00 | 0.00 | 0.00 | 51 | 1016.2 |
| 20260502004726 | 61 | 358 | 2.0 | 3.0 | 0.00 | 0.00 | 0.00 | 50 | 1016.1 |
| 20260502004225 | 61 | 358 | 2.0 | 3.0 | 0.00 | 0.00 | 0.00 | 51 | 1016.0 |
| 20260502003725 | 61 | 358 | 1.0 | 3.0 | 0.00 | 0.00 | 0.00 | 50 | 1016.0 |